MST,Max TemperatureF,Mean TemperatureF,Min TemperatureF,Max Dew PointF,MeanDew PointF,Min DewpointF,Max Humidity, Mean Humidity, Min Humidity, Max Sea Level PressureIn, Mean Sea Level PressureIn, Min Sea Level PressureIn, Max VisibilityMiles, Mean VisibilityMiles, Min VisibilityMiles, Max Wind SpeedMPH, Mean Wind SpeedMPH, Max Gust SpeedMPH,PrecipitationIn, CloudCover, Events, WindDirDegrees
2012-12-1,69,56,42,25,22,19,37,27,17,29.93,29.84,29.68,10,10,10,24,9,30,0.00,0,,193
2012-12-2,65,49,32,22,17,11,52,34,15,29.98,29.81,29.58,10,10,2,22,8,24,0.00,0,,226
2012-12-3,63,48,32,26,18,12,44,30,15,30.17,29.90,29.54,10,10,1,36,14,45,0.00,0,,36
2012-12-4,56,40,24,19,16,12,60,41,22,30.37,30.25,30.18,10,10,10,14,6,15,0.00,0,,254
2012-12-5,72,51,30,21,17,13,47,31,15,30.15,29.93,29.75,10,10,10,16,7,20,0.00,0,,245
2012-12-6,57,45,32,32,24,16,56,40,24,29.92,29.86,29.74,10,10,10,22,9,29,T,2,Rain,56
2012-12-7,54,38,22,20,16,13,65,46,26,30.02,29.88,29.78,10,10,10,16,7,20,0.00,0,,355
2012-12-8,56,37,17,21,17,10,74,49,24,29.95,29.79,29.58,10,10,10,32,8,39,0.00,1,,119
2012-12-9,31,18,4,21,14,-1,88,68,47,30.36,30.15,29.94,10,6,0,25,12,30,0.01,6,Fog-Snow,342
2012-12-10,37,18,-1,20,8,-6,83,60,37,30.25,30.09,29.96,10,10,10,17,7,18,0.00,2,,274
2012-12-11,43,29,14,21,12,5,84,54,24,30.13,30.02,29.88,10,10,10,20,10,22,0.00,1,,233
2012-12-12,58,37,16,19,15,9,67,43,18,29.94,29.86,29.79,10,9,1,20,11,23,0.00,0,,252
2012-12-13,60,43,26,18,14,8,53,34,14,30.04,29.94,29.87,10,10,10,15,5,15,0.00,0,,181
2012-12-14,41,32,23,34,26,17,92,75,58,29.86,29.65,29.46,10,10,10,17,8,21,T,3,,290
2012-12-15,53,40,27,28,22,15,89,60,30,29.75,29.69,29.62,10,10,10,20,8,22,0.00,2,,237
2012-12-16,44,33,22,27,22,15,88,67,45,29.88,29.75,29.63,10,10,10,15,6,17,0.00,3,,11
2012-12-17,60,40,20,17,14,10,69,43,17,29.85,29.71,29.58,10,10,10,44,15,52,0.00,0,,259
2012-12-18,54,42,29,17,14,11,53,37,20,29.79,29.68,29.55,10,10,10,24,13,32,0.00,0,,146
2012-12-19,32,23,13,19,13,3,69,58,47,30.27,29.82,29.52,10,8,1,43,21,54,T,5,Snow,345
2012-12-20,49,28,6,11,4,-3,69,41,12,30.40,30.33,30.27,10,10,10,18,11,23,0.00,0,,248
2012-12-21,56,36,15,14,9,5,62,39,16,30.32,30.20,30.08,10,10,10,16,6,17,0.00,0,,262
2012-12-22,48,34,19,14,9,5,73,47,21,30.08,30.03,29.99,10,10,10,21,7,22,0.00,0,,269
2012-12-23,62,39,15,12,8,5,68,40,12,30.06,29.94,29.81,10,10,10,32,11,38,0.00,0,,263
2012-12-24,52,35,17,18,12,5,74,48,21,29.97,29.83,29.62,10,9,2,30,11,36,T,3,Snow,82
2012-12-25,19,11,2,12,8,1,88,78,67,30.39,30.17,29.93,10,4,1,18,8,21,T,7,Snow,33
2012-12-26,23,11,-1,14,6,-5,91,81,71,30.27,29.95,29.62,10,8,0,10,5,12,0.00,1,Fog,19
2012-12-27,29,20,10,19,12,9,92,78,63,30.05,29.80,29.63,10,5,0,10,5,15,0.00,5,Fog,7
2012-12-28,38,26,14,17,13,7,80,59,37,30.24,30.11,30.02,10,10,10,23,8,26,0.00,3,,283
2012-12-29,42,24,6,16,9,0,77,54,30,30.38,30.23,30.00,10,10,10,17,9,21,0.00,0,,243
2012-12-30,45,27,9,16,9,4,80,51,22,30.10,30.02,29.95,10,10,10,22,8,25,0.00,0,,358
2012-12-31,30,23,16,16,14,7,84,69,53,30.20,30.07,29.95,10,9,2,14,5,16,T,7,Snow,23